FW2417 Weather Reports


Display with metric or nautical units.
time (UTC)temp
F
wind
direction
speed
MPH
gust
MPH
rain 1hr
in
rain 24hr
in
rain mn
in
humidity
%
barometer
mb
20260504030104 60 239 1.0 11.0 0.00 0.00 0.00 83 1014.9
20260504024550 61 235 1.0 7.0 0.00 0.00 0.00 83 1014.9
20260504023044 61 240 0.0 5.0 0.00 0.00 0.00 82 1014.9
20260504021547 61 228 0.0 4.0 0.00 0.00 0.00 82 1014.9
20260504020003 61 219 1.0 10.0 0.00 0.00 0.00 82 1014.9
20260504014617 61 198 1.0 5.0 0.00 0.00 0.00 82 1015.0
20260504013112 60 210 1.0 11.0 0.00 0.00 0.00 82 1015.1
20260504011613 60 242 0.0 4.0 0.00 0.00 0.00 82 1015.2
20260504010106 60 222 1.0 9.0 0.00 0.00 0.00 82 1015.4
20260504004608 60 226 1.0 9.0 0.00 0.00 0.00 82 1015.5
20260504003114 60 224 1.0 4.0 0.00 0.00 0.00 82 1015.6
20260504001606 59 236 0.0 7.0 0.00 0.00 0.00 82 1015.7
20260504000100 60 208 0.0 4.0 0.00 0.00 0.00 82 1016.0
20260503234556 60 208 0.0 4.0 0.00 0.00 0.00 82 1016.1
20260503233053 60 203 2.0 10.0 0.00 0.00 0.00 82 1016.1
20260503231552 60 207 2.0 9.0 0.00 0.00 0.00 82 1016.2
20260503230057 60 224 3.0 8.0 0.00 0.00 0.00 81 1016.3
20260503224543 60 219 1.0 7.0 0.00 0.00 0.00 81 1016.4
20260503223051 60 155 1.0 4.0 0.00 0.00 0.00 80 1016.4
20260503221547 61 236 0.0 4.0 0.00 0.00 0.00 79 1016.4
20260503220120 61 243 0.0 3.0 0.00 0.00 0.00 77 1016.3
20260503214612 61 228 1.0 4.0 0.00 0.00 0.00 76 1016.3
20260503213103 62 236 0.0 3.0 0.00 0.00 0.00 74 1016.2
20260503211603 62 238 0.0 5.0 0.00 0.00 0.00 73 1016.2
20260503210057 62 242 0.0 3.0 0.00 0.00 0.00 72 1016.0
20260503204552 63 235 0.0 2.0 0.00 0.00 0.00 71 1015.9
20260503203049 63 206 0.0 7.0 0.00 0.00 0.00 69 1015.6
20260503201552 64 246 0.0 5.0 0.00 0.00 0.00 66 1015.4
20260503200035 64 243 0.0 5.0 0.00 0.00 0.00 66 1015.1
20260503194545 65 267 0.0 5.0 0.00 0.00 0.00 67 1014.9
20260503193031 66 228 0.0 10.0 0.00 0.00 0.00 66 1014.7
20260503191502 67 294 0.0 4.0 0.00 0.00 0.00 62 1014.5
20260503190110 68 242 1.0 6.0 0.00 0.00 0.00 59 1014.2
20260503184612 69 214 1.0 13.0 0.00 0.00 0.00 57 1014.1
20260503183106 70 267 1.0 9.0 0.00 0.00 0.00 57 1014.0
20260503181609 71 239 0.0 10.0 0.00 0.00 0.00 53 1014.1
20260503180059 72 260 3.0 15.0 0.00 0.00 0.00 52 1014.0
20260503174618 72 18 1.0 13.0 0.00 0.00 0.00 51 1013.9
20260503173053 73 299 1.0 12.0 0.00 0.00 0.00 49 1014.0
20260503171548 73 246 2.0 12.0 0.00 0.00 0.00 48 1014.0
20260503160114 76 252 1.0 7.0 0.00 0.00 0.00 44 1013.7
20260503120128 74 308 2.0 9.0 0.00 0.00 0.00 53 1015.5
20260503090117 68 208 2.0 11.0 0.00 0.00 0.00 73 1016.2
20260503081600 65 214 2.0 10.0 0.00 0.00 0.00 81 1016.4
20260503071544 64 243 0.0 4.0 0.00 0.00 0.00 85 1016.3
20260503060119 62 221 0.0 1.0 0.00 0.00 0.00 90 1015.8
20260503054614 61 243 0.0 1.0 0.00 0.00 0.00 90 1015.6
20260503053106 61 233 0.0 1.0 0.00 0.00 0.00 90 1015.5
20260503051603 62 233 0.0 1.0 0.00 0.00 0.00 89 1015.6
20260503050100 62 195 0.0 1.0 0.00 0.00 0.00 88 1015.6
20260503044602 62 193 0.0 2.0 0.00 0.00 0.00 87 1015.7
20260503043043 63 232 0.0 2.0 0.00 0.00 0.00 87 1015.8
20260503041600 63 218 0.0 1.0 0.00 0.00 0.00 87 1015.9
20260503040026 63 159 1.0 4.0 0.00 0.00 0.00 87 1015.8
20260503034538 63 249 0.0 1.0 0.00 0.00 0.00 86 1016.0
20260503033003 62 210 0.0 2.0 0.00 0.00 0.00 85 1016.0
20260503031503 62 225 0.0 5.0 0.00 0.00 0.00 85 1016.0